Torna al catalogo

COSMOS 2251 DEB

AttivoLEO
NORAD 34271·DEBRIS·🇷🇺 Russia

Lanciato Jun 16, 1993 da Plesetsk Cosmodrome

Loading…

Prossimi Passaggi (prossime 24 ore)

TLE

AggiornatoSource: Space-Track

Epoca: Sep 13, 2026, 19:08 UTC

1 34271U 93036LR  26256.79787868  .00008616  00000-0  12212-2 0  9990
2 34271  74.0199  21.7374 0017327  16.2015 135.7164 14.77044341922889

Traccia COSMOS 2251 DEB in tempo reale con AllMySat

Download on the App Store